CFKST CYQR-CYYN

Flight info

Callsign CFKST
Flight time 0h 32m
Altitude 24000
Route ODGOV
Aircraft SF50/L-SDGRWY/L

Departure

Time 2026-04-24 03:41
Airport Regina International Airport (CYQR)

Arrival

Time 2026-04-24 04:13
Airport Swift Current Airport (CYYN)
Time Latitude Longitude Altitude Speed Heading
2026-04-24 03:24 50.43830 -104.65492 1887 ft 0 kts
2026-04-24 03:34 50.43831 -104.65492 1887 ft 2 kts 355°
2026-04-24 03:34 50.43826 -104.65523 1887 ft 8 kts 143°
2026-04-24 03:35 50.43811 -104.65430 1883 ft 9 kts 90°
2026-04-24 03:35 50.43794 -104.65364 1887 ft 10 kts 162°
2026-04-24 03:35 50.43768 -104.65482 1887 ft 17 kts 269°
2026-04-24 03:35 50.43767 -104.65726 1889 ft 24 kts 271°
2026-04-24 03:36 50.43761 -104.65990 1882 ft 23 kts 243°
2026-04-24 03:36 50.43668 -104.66154 1889 ft 18 kts 227°
2026-04-24 03:36 50.43594 -104.66250 1889 ft 11 kts 169°
2026-04-24 03:36 50.43519 -104.66160 1887 ft 22 kts 137°
2026-04-24 03:37 50.43343 -104.65917 1887 ft 40 kts 138°
2026-04-24 03:37 50.43156 -104.65659 1890 ft 33 kts 138°
2026-04-24 03:37 50.43002 -104.65427 1892 ft 28 kts 139°
2026-04-24 03:37 50.42862 -104.65239 1887 ft 25 kts 136°
2026-04-24 03:38 50.42752 -104.65076 1891 ft 20 kts 138°
2026-04-24 03:38 50.42666 -104.64954 1894 ft 13 kts 137°
2026-04-24 03:38 50.42661 -104.64947 1894 ft 1 kts 137°
2026-04-24 03:38 50.42586 -104.64883 1895 ft 23 kts 170°
2026-04-24 03:39 50.42537 -104.64891 1889 ft 0 kts 192°
2026-04-24 03:39 50.42532 -104.64892 1895 ft 3 kts 192°
2026-04-24 03:39 50.42472 -104.64919 1894 ft 9 kts 216°
2026-04-24 03:40 50.42445 -104.64977 1896 ft 5 kts 254°
2026-04-24 03:40 50.42479 -104.65071 1899 ft 31 kts 318°
2026-04-24 03:40 50.42803 -104.65518 1892 ft 90 kts 316°
2026-04-24 03:40 50.43354 -104.66303 2089 ft 113 kts 313°
2026-04-24 03:41 50.43925 -104.67118 2618 ft 112 kts 317°
2026-04-24 03:41 50.44518 -104.67885 3253 ft 108 kts 315°
2026-04-24 03:41 50.45087 -104.68650 3786 ft 105 kts 314°
2026-04-24 03:41 50.45616 -104.69381 4355 ft 100 kts 313°
2026-04-24 03:42 50.46005 -104.70194 4866 ft 94 kts 278°
2026-04-24 03:42 50.45950 -104.71274 5260 ft 101 kts 271°
2026-04-24 03:42 50.45905 -104.72388 5687 ft 105 kts 272°
2026-04-24 03:42 50.45794 -104.73564 6073 ft 113 kts 264°
2026-04-24 03:43 50.45634 -104.74816 6325 ft 126 kts 269°
2026-04-24 03:43 50.45566 -104.76299 6373 ft 145 kts 270°
2026-04-24 03:43 50.45484 -104.77884 6644 ft 146 kts 269°
2026-04-24 03:43 50.45385 -104.79470 6915 ft 147 kts 269°
2026-04-24 03:44 50.45308 -104.81077 7473 ft 148 kts 269°
2026-04-24 03:44 50.45235 -104.82687 8096 ft 149 kts 269°
2026-04-24 03:44 50.45164 -104.84324 8709 ft 152 kts 269°
2026-04-24 03:44 50.45094 -104.85988 9320 ft 154 kts 269°
2026-04-24 03:45 50.45020 -104.87672 9891 ft 156 kts 268°
2026-04-24 03:45 50.44946 -104.89383 10421 ft 158 kts 268°
2026-04-24 03:45 50.44869 -104.91121 10943 ft 161 kts 268°
2026-04-24 03:45 50.44730 -104.92878 11461 ft 164 kts 262°
2026-04-24 03:46 50.44563 -104.94655 11980 ft 166 kts 264°
2026-04-24 03:46 50.44427 -104.96461 12493 ft 168 kts 264°
2026-04-24 03:46 50.44294 -104.98295 12992 ft 171 kts 263°
2026-04-24 03:46 50.44160 -105.00158 13542 ft 173 kts 263°
2026-04-24 03:47 50.44024 -105.02045 13979 ft 175 kts 263°
2026-04-24 03:47 50.43885 -105.03954 14410 ft 177 kts 262°
2026-04-24 03:47 50.43745 -105.05886 14828 ft 179 kts 262°
2026-04-24 03:47 50.43602 -105.07840 15252 ft 181 kts 262°
2026-04-24 03:48 50.43458 -105.09813 15684 ft 183 kts 262°
2026-04-24 03:48 50.43310 -105.11805 16107 ft 185 kts 262°
2026-04-24 03:48 50.43162 -105.13812 16531 ft 186 kts 262°
2026-04-24 03:48 50.43013 -105.15833 16936 ft 188 kts 262°
2026-04-24 03:49 50.42861 -105.17883 17339 ft 190 kts 262°
2026-04-24 03:49 50.42708 -105.19942 17762 ft 190 kts 262°
2026-04-24 03:49 50.42558 -105.21977 18157 ft 191 kts 262°
2026-04-24 03:49 50.42401 -105.24058 18444 ft 195 kts 261°
2026-04-24 03:50 50.42240 -105.26202 18704 ft 201 kts 260°
2026-04-24 03:50 50.42081 -105.28377 19058 ft 201 kts 259°
2026-04-24 03:50 50.41913 -105.30587 19249 ft 210 kts 261°
2026-04-24 03:50 50.41738 -105.32888 19536 ft 213 kts 259°
2026-04-24 03:51 50.41563 -105.35213 19813 ft 218 kts 260°
2026-04-24 03:51 50.41378 -105.37597 20070 ft 222 kts 261°
2026-04-24 03:51 50.41194 -105.40028 20325 ft 227 kts 257°
2026-04-24 03:51 50.41004 -105.42511 20581 ft 231 kts 258°
2026-04-24 03:52 50.40811 -105.45057 20816 ft 238 kts 259°
2026-04-24 03:52 50.40616 -105.47623 21185 ft 237 kts 260°
2026-04-24 03:52 50.40415 -105.50210 21458 ft 241 kts 259°
2026-04-24 03:52 50.40216 -105.52815 21805 ft 241 kts 259°
2026-04-24 03:53 50.40013 -105.55440 22111 ft 244 kts 259°
2026-04-24 03:53 50.39807 -105.58096 22412 ft 247 kts 259°
2026-04-24 03:53 50.39599 -105.60777 22711 ft 249 kts 258°
2026-04-24 03:53 50.39386 -105.63486 23012 ft 252 kts 258°
2026-04-24 03:54 50.39170 -105.66222 23311 ft 254 kts 258°
2026-04-24 03:54 50.38954 -105.68986 23583 ft 256 kts 258°
2026-04-24 03:54 50.38737 -105.71759 23817 ft 259 kts 258°
2026-04-24 03:54 50.38504 -105.74636 23826 ft 272 kts 258°
2026-04-24 03:55 50.38266 -105.77634 23830 ft 282 kts 258°
2026-04-24 03:55 50.38023 -105.80722 23829 ft 290 kts 258°
2026-04-24 03:55 50.37771 -105.83897 23832 ft 297 kts 258°
2026-04-24 03:55 50.37509 -105.87145 23829 ft 304 kts 258°
2026-04-24 03:56 50.37242 -105.90464 23833 ft 311 kts 259°
2026-04-24 03:56 50.36968 -105.93871 23833 ft 318 kts 259°
2026-04-24 03:56 50.36689 -105.97333 23833 ft 323 kts 259°
2026-04-24 03:56 50.36403 -106.00849 23830 ft 327 kts 259°
2026-04-24 03:57 50.36112 -106.04403 23828 ft 331 kts 260°
2026-04-24 03:57 50.35830 -106.07985 23828 ft 333 kts 259°
2026-04-24 03:57 50.35509 -106.11590 23830 ft 335 kts 258°
2026-04-24 03:57 50.35221 -106.15225 23827 ft 338 kts 261°
2026-04-24 03:58 50.34972 -106.18817 23268 ft 326 kts 261°
2026-04-24 03:58 50.34674 -106.22378 21853 ft 330 kts 259°
2026-04-24 03:58 50.34356 -106.25880 20689 ft 323 kts 259°
2026-04-24 03:58 50.34074 -106.29228 20387 ft 300 kts 260°
2026-04-24 03:59 50.33804 -106.32519 20020 ft 308 kts 261°
2026-04-24 03:59 50.33524 -106.35825 19626 ft 306 kts 262°
2026-04-24 03:59 50.33242 -106.39126 19211 ft 305 kts 262°
2026-04-24 03:59 50.32963 -106.42393 18805 ft 300 kts 262°
2026-04-24 04:00 50.32688 -106.45613 18409 ft 296 kts 262°
2026-04-24 04:00 50.32419 -106.48744 18003 ft 286 kts 263°
2026-04-24 04:00 50.32155 -106.51812 17783 ft 286 kts 263°
2026-04-24 04:00 50.31886 -106.54914 17447 ft 293 kts 263°
2026-04-24 04:01 50.31612 -106.58067 17067 ft 289 kts 263°
2026-04-24 04:01 50.31343 -106.61164 16681 ft 290 kts 263°
2026-04-24 04:01 50.31077 -106.64220 16308 ft 281 kts 263°
2026-04-24 04:01 50.30812 -106.67236 15941 ft 281 kts 263°
2026-04-24 04:02 50.30546 -106.70251 15575 ft 278 kts 263°
2026-04-24 04:02 50.30270 -106.73277 15209 ft 283 kts 262°
2026-04-24 04:02 50.29992 -106.76261 14835 ft 272 kts 263°
2026-04-24 04:02 50.29756 -106.79207 14478 ft 270 kts 264°
2026-04-24 04:03 50.29509 -106.82078 14124 ft 266 kts 264°
2026-04-24 04:03 50.29246 -106.84961 13777 ft 267 kts 264°
2026-04-24 04:03 50.28987 -106.87827 13406 ft 266 kts 265°
2026-04-24 04:03 50.28732 -106.90683 13046 ft 264 kts 265°
2026-04-24 04:04 50.28478 -106.93520 12694 ft 262 kts 265°
2026-04-24 04:04 50.28223 -106.96334 12348 ft 261 kts 265°
2026-04-24 04:04 50.27970 -106.99128 12013 ft 258 kts 265°
2026-04-24 04:04 50.27720 -107.01897 11672 ft 256 kts 265°
2026-04-24 04:05 50.27471 -107.04631 11337 ft 253 kts 265°
2026-04-24 04:05 50.27306 -107.06429 11117 ft 252 kts 265°
2026-04-24 04:05 50.27059 -107.09128 10783 ft 250 kts 266°
2026-04-24 04:05 50.26816 -107.11801 10454 ft 248 kts 266°
2026-04-24 04:06 50.26550 -107.14454 10128 ft 246 kts 265°
2026-04-24 04:06 50.26280 -107.17087 9807 ft 245 kts 266°
2026-04-24 04:06 50.26072 -107.19718 9459 ft 243 kts 268°
2026-04-24 04:06 50.25855 -107.22332 9130 ft 242 kts 266°
2026-04-24 04:07 50.25609 -107.24925 8807 ft 241 kts 266°
2026-04-24 04:07 50.25361 -107.27514 8470 ft 240 kts 267°
2026-04-24 04:07 50.25120 -107.30082 8165 ft 234 kts 267°
2026-04-24 04:07 50.24892 -107.32475 7862 ft 213 kts 268°
2026-04-24 04:08 50.24686 -107.34697 7591 ft 203 kts 268°
2026-04-24 04:08 50.24487 -107.36852 7334 ft 198 kts 268°
2026-04-24 04:08 50.24288 -107.38982 7072 ft 198 kts 268°
2026-04-24 04:08 50.24009 -107.41099 6801 ft 203 kts 259°
2026-04-24 04:09 50.23404 -107.43127 6527 ft 210 kts 248°
2026-04-24 04:09 50.22513 -107.44942 6248 ft 217 kts 236°
2026-04-24 04:09 50.21603 -107.46753 5950 ft 207 kts 248°
2026-04-24 04:09 50.21022 -107.48797 5668 ft 199 kts 259°
2026-04-24 04:10 50.20758 -107.50847 5429 ft 187 kts 270°
2026-04-24 04:10 50.20765 -107.52803 5191 ft 179 kts 280°
2026-04-24 04:10 50.20997 -107.54684 4952 ft 174 kts 289°
2026-04-24 04:11 50.22111 -107.57975 4485 ft 172 kts 308°
2026-04-24 04:11 50.22948 -107.59323 4250 ft 174 kts 314°
2026-04-24 04:11 50.23823 -107.60627 3984 ft 175 kts 313°
2026-04-24 04:11 50.24668 -107.61927 3945 ft 167 kts 312°
2026-04-24 04:12 50.25497 -107.63276 3713 ft 174 kts 313°
2026-04-24 04:12 50.26370 -107.64598 3408 ft 172 kts 314°
2026-04-24 04:12 50.27202 -107.65834 3140 ft 156 kts 315°
2026-04-24 04:12 50.27935 -107.66875 2900 ft 130 kts 316°
2026-04-24 04:13 50.28580 -107.67877 2721 ft 129 kts 314°
2026-04-24 04:13 50.29205 -107.68829 2667 ft 115 kts 315°
2026-04-24 04:13 50.29662 -107.69526 2658 ft 63 kts 319°
2026-04-24 04:13 50.29745 -107.69701 2657 ft 5 kts 130°
2026-04-24 04:14 50.29715 -107.69643 2660 ft 8 kts 127°
2026-04-24 04:14 50.29675 -107.69564 2655 ft 11 kts 133°
2026-04-24 04:14 50.29648 -107.69519 2656 ft 0 kts 132°
2026-04-24 04:15 50.29627 -107.69483 2661 ft 13 kts 133°
2026-04-24 04:15 50.29551 -107.69364 2659 ft 12 kts 135°
2026-04-24 04:15 50.29517 -107.69311 2660 ft 2 kts 135°
2026-04-24 04:15 50.29468 -107.69238 2664 ft 21 kts 136°
2026-04-24 04:16 50.29367 -107.69084 2665 ft 14 kts 135°
2026-04-24 04:16 50.29357 -107.69067 2665 ft 10 kts 304°
2026-04-24 04:16 50.29350 -107.69174 2662 ft 11 kts 220°
2026-04-24 04:16 50.29306 -107.69241 2663 ft 7 kts 225°
2026-04-24 04:17 50.29277 -107.69289 2667 ft 9 kts 226°
2026-04-24 04:17 50.29220 -107.69376 2669 ft 17 kts 225°